COSMOS 1275 DEB, 17633

Orbit data source: Space-Track

COSMOS 1275 DEB, 17633 is space debris in LEO originally from a launch on Thu, 04 Jun 1981 UTC launched from the Plesetsk Missile And Space Complex (PKMTR). Debris objects in space refer to the collection of defunct objects orbiting the Earth. Examples of debris include non-operational satellites, rocket bodies, and fragments generated from explosions, collisions, or faulty payload assembly.

Loading next visibility...
Identifier
17633, 1981-053LC
Orbit
LEO
Country
Flag of CISCIS
Related business
Manufacturer
Unknown
Mission
Spacecraft
Bus & Motor
Unknown
Mass
Unknown
Launch date (UTC)
1981-06-04 (44 years ago)
Launch vehicle
Unknown
Launch site
Plesetsk Missile And Space Complex (PKMTR)
Object type
Payload
Rocket body
Debris
Shape & HBR
Unknown shape, 0.1 m
Radar Cross Section
Small (<0.1 m²)

Expand to show TLE details & history
Last TLE update: 2 days ago

TLE from 2 days ago
0 COSMOS 1275 DEB
1 17633U 81053LC  25285.12250909  .00003962  00000-0  30442-2 0  9992
2 17633  83.0644 318.9159 0158289  19.2355  34.2125 13.87219345  6917
Epoch: 2025-10-12T02:56Z
TLE epoch observation values (Epoch: 2025-10-12T02:56:24.785Z)
Latitude
54.00113°
Longitude
-96.54431°
Altitude
852.073 km
Speed
7.48 km/s
True Right ascension
21h 54m 00s
True Declination
53° 50' 22"
Sunlit
Object was in full shadow at epoch
Visualization orbit readout
Latitude
Unknown
Longitude
Unknown
Altitude
Unknown
Speed
Unknown
Apparent Right ascension
Unknown
Apparent Declination
Unknown
Sunlit
N/A
Visualization observer readout
Local Sidereal Time
02:35:19
Azimuth
Unknown
Elevation
Unknown
Doppler factor
Unknown
Orbital elements
Apogee altitude
1,051.285 km
Perigee altitude
819.751 km
Semi-major axis
7,313.655 km
Eccentricity
0.01583
Inclination
83.0644°
RAAN
318.9159°
Arg. of periapsis
19.2355°
True anomaly
35.24926°
Mean anomaly
34.2125°
Eccentric anomaly
34.72918°
Mean motion
3.4701 °/min
Orbital period
103.74 mins
BSTAR
0.0030442
Loading maneuver chart data...
Computing Atmospheric mass density...
Loading historical data...
Loading historical data...
Loading historical data...
Loading historical data...
Loading historical data...
Loading historical data...
Loading historical data...

Documentation

Showing up to 5 results
|